Location: Newark
(44.9861°N, 0.2536°E)
Time: 19:58:51
(UTC+00:00)

HuskySat-1 - Pass Details

Date: 19 July 2020
Orbit: 457 x 471 km, 51.6° (Epoch: 11 August)

Event Time Altitude Azimuth Distance (km) Brightness Sun altitude
Rises 01:46:28 0° 299° (WNW) 2,495 ? -20.3°
Reaches altitude 10° 01:48:41 10° 306° (NW) 1,615 ? -20.1°
Maximum altitude 01:52:12 45° 20° (NNE) 637 ? -19.9°
Drops below altitude 10° 01:55:41 10° 95° (E) 1,602 ? -19.6°
Sets 01:57:53 0° 102° (ESE) 2,472 ? -19.4°
